Погода в Закопане

Польша     49°18′02″N   19°57′44″E
темп.,
°C
ветер,
м/с
пор.,
м/с
влажн.,
%
обл.,
%
осадки,
мм/ч
давл.,
гПа
погр.,
м
25 февраля, чт
чт2501:00+4ююз23561 0.0 103525
04:00+4ююз23590 0.0 103426
07:00+4ююз23590 0.0 103325
10:00+9ююз23710 0.0 103379
13:00+11юз23750 0.0 1032173
16:00+7ююз33740 0.0 103064
19:00+5ююз33670 0.0 103142
22:00+4ююз33670 0.0 103144
26 февраля, пт
пт2601:00+4ююз33680 0.0 103136
04:00+3юз12670 0.0 102922
07:00+2з11720 0.0 103022
10:00+8з11650 0.0 1029155
13:00+9сз12670 0.0 1027520
16:00+7зсз11830 0.0 102523
19:00+3зсз127721 0.0 102622
22:00+2з2291100 0.0 102630
27 февраля, сб
сб2701:00+1с3499100 1.8 1026214
04:00−1ссз3498100 1.9 1026252
07:00−3ссз3696100 2.2 1028613
10:00−3ссз358997 0.4 1028520
13:00−2сз359097 0.6 1029560
16:00−3ссз369599 0.3 1029557
19:00−4ссз369599 0.9 1031627
22:00−5ссз359497 0.3 1032445
28 февраля, вс
вс2801:00−5ссз249596 0.4 1033362
04:00−6с239696 0.1 1033200
07:00−6с229782 0.1 1033114
10:00−2с237667 0.0 1033289
13:00−1ссз227450 0.0 1033460
16:00−3с238297 0.0 1032290
19:00−6с139781 0.0 1033103
22:00−5с239598 0.0 1034285
1 марта, пн
пн101:00−5с129398 0.1 1035222
04:00−6ссв2298100 0.0 1035148
07:00−6всв119497 0.1 103684
10:00−2св227229 0.0 1037319
13:000св226214 0.0 1037487
16:00−2св22780 0.0 1037287
19:00−5в11921 0.0 103828
22:00−5юв12890 0.0 103929